FENGYUN 1C DEB

Satellite information

Favourite Embed

Satellite Type and Status

DEBRISIN ORBIT

Key statistics

Satellite FENGYUN 1C DEB at a glance.

Uptime

9493

Days in orbit

Revolutions

≈ 14.4

Per day

Orbit

SSO

Sun Synchronous Orbit

Inclination

98.9

Latest

Satellite identification and parameters

Extended collection of information and parameters for FENGYUN 1C DEB.

Object identification

Identified? True

Debris? True

Object name: FENGYUN 1C DEB

International designator: 1999-025AWV

Object number (NORAD): 30859

Object ID (CCSDS): 30859

Country: PEOPLES REPUBLIC OF CHINA (PRC)

Current information (Y/N): Y

RCS size: SMALL

Orbital parameters

Period: 99.712 minutes

Inclination: 98.9214 deg

SMA: 7122.926 km

Apoapsis: 767.449 km

Periapsis: 722.134 km

RAAN: 163.3902 deg

Eccentricy: 0.0031809

Argument of periapsis: 334.8466 deg

Mean anomaly: 25.1172 deg

Mean motion: 14.4415925 rev/day

Mean motion (dot): 0.00012269 rev/day2

B* drag term: 0.0035637 1/REarth

Two-line elements (TLE)

Creation date: May 5, 2025, 2:11 a.m.

Reference frame: TEME

Reference center: EARTH

Epoch: May 4, 2025, 7:49 p.m. UTC

TLE line 0: 0 FENGYUN 1C DEB

TLE line 1: 1 30859U 99025AWV 25124.82574291 .00012269 00000-0 35637-2 0 9998

TLE line 2: 2 30859 98.9214 163.3902 0031809 334.8466 25.1172 14.44159250938271

Live tracking on map

Real-time ground track for satellite FENGYUN 1C DEB.

In-orbit conjunctions

A list of the most updated potential collisions computed for object FENGYUN 1C DEB.

Target Orbit TCA Probability of collision Miss distance Type
CZ-6A DEB LEO 2024-11-03 10:58:13 0.0001539255 339.0 (m) DEBRIS

Associated space launch

Chinese polar orbiting meteorological satellite

FENGYUN 1C DEB was lifted into orbit during the mission ‘Long March 4B | Feng Yun 1C’, on board a Long March 4B space rocket.

The launch took place on May 10, 1999, 1:33 a.m. from Launch Complex 7.

For more information about the launch, click the button.

Launch to space Long March 4B | Feng Yun 1C
Long March 4B | Feng Yun 1C

Agency: N/A

Status: Launch Successful

Launch date: May 10, 1999, 1:33 a.m. UTC

Rocket: Long March 4B

Launch pad: Launch Complex 7

Location: Taiyuan Satellite Launch Center, People's Republic of China

...

Latest news about this satellite

There are no fresh news available about this satellite. Check back as we update our databases every day.


Newsletter sign-up

Weekly statistics, charts and insights to help you stay on top of the space industry.